GW6873 Weather Reports


time (UTC)temp
C
wind
direction
speed
KPH
gust
KPH
rain 1hr
cm
rain 24hr
cm
rain mn
cm
humidity
%
barometer
mb
20260506113020 8 141 6.4 9.7 0.00 0.08 0.00 64 1015.5
20260506111524 8 181 1.6 8.0 0.00 0.10 0.00 63 1015.5
20260506110012 8 146 0.0 8.0 0.00 0.10 0.00 63 1015.5
20260506104539 8 154 3.2 9.7 0.00 0.13 0.00 62 1015.3
20260506103021 8 176 3.2 9.7 0.00 0.15 0.00 63 1015.2
20260506100035 9 184 4.8 9.7 0.00 0.25 0.00 62 1015.1
20260506094512 9 184 3.2 6.4 0.00 0.36 0.00 64 1014.8
20260506093017 9 146 1.6 6.4 0.00 0.48 0.00 63 1014.7
20260506091524 9 135 1.6 6.4 0.00 0.56 0.00 63 1014.5
20260506090023 9 191 3.2 6.4 0.00 0.66 0.00 63 1014.5
20260506084530 8 168 0.0 0.0 0.00 0.74 0.00 65 1014.5
20260506083030 9 139 0.0 3.2 0.00 0.74 0.00 64 1014.4
20260506081518 9 57 0.0 1.6 0.00 0.76 0.00 65 1014.4
20260506073028 10 155 1.6 4.8 0.00 0.76 0.00 60 1014.3
20260506071515 11 133 1.6 6.4 0.00 0.76 0.00 59 1014.4
20260506061528 11 136 0.0 6.4 0.00 0.76 0.76 58 1014.0
20260506044534 13 48 0.0 3.2 0.00 0.76 0.76 49 1013.4
20260506043026 13 184 1.6 3.2 0.00 0.76 0.76 49 1013.3
20260506041507 14 142 0.0 1.6 0.00 0.76 0.76 47 1013.0
20260506040013 13 231 0.0 1.6 0.00 0.76 0.76 49 1012.9
20260506034516 13 231 0.0 1.6 0.00 0.76 0.76 51 1012.8
20260506033021 13 132 0.0 1.6 0.00 0.76 0.76 53 1012.4
20260506031524 14 93 0.0 1.6 0.00 0.76 0.76 45 1012.0
20260506030005 15 186 0.0 3.2 0.00 0.76 0.76 47 1011.8
20260506024523 16 105 0.0 1.6 0.00 0.76 0.76 45 1011.3
20260506023016 17 188 0.0 8.0 0.00 0.76 0.76 37 1011.0
20260506021538 17 8 1.6 8.0 0.00 0.76 0.76 35 1010.6
20260506020024 17 268 4.8 16.1 0.00 0.76 0.76 36 1010.2
20260506014515 17 99 1.6 9.7 0.00 0.76 0.76 35 1010.1
20260506013011 18 203 0.0 14.5 0.00 0.76 0.76 37 1010.1
20260506011523 18 3 3.2 16.1 0.00 0.76 0.76 34 1010.0
20260506010021 18 150 3.2 11.3 0.00 0.76 0.76 35 1009.8
20260506004526 18 310 1.6 11.3 0.00 0.76 0.76 34 1009.7
20260506003007 20 18 1.6 4.8 0.00 0.76 0.76 35 1009.7
20260506001514 20 252 4.8 12.9 0.00 0.76 0.76 37 1009.5
20260506000019 19 237 1.6 12.9 0.00 0.76 0.76 41 1009.5
20260505234522 19 266 1.6 17.7 0.00 0.76 0.76 38 1009.4
20260505233029 20 195 4.8 12.9 0.00 0.76 0.76 38 1009.4
20260505231508 20 304 1.6 27.4 0.00 0.76 0.76 37 1009.5
20260505230013 20 316 4.8 20.9 0.00 0.76 0.76 40 1009.5
20260505224526 20 252 3.2 9.7 0.00 0.76 0.76 43 1009.6
20260505223024 18 242 0.0 17.7 0.00 0.76 0.76 52 1010.2
20260505221524 18 305 4.8 17.7 0.00 0.76 0.76 43 1010.1
20260505220012 20 183 4.8 22.5 0.00 0.76 0.76 41 1009.8
20260505214515 20 144 3.2 14.5 0.00 0.76 0.76 41 1010.1
20260505213021 19 262 4.8 20.9 0.00 0.76 0.76 44 1010.3
20260505211535 18 291 1.6 12.9 0.00 0.76 0.76 49 1010.8
20260505210028 18 271 6.4 25.7 0.00 0.76 0.76 48 1011.1
20260505204511 20 328 8.0 19.3 0.03 0.76 0.76 45 1010.8
20260505203015 19 15 3.2 19.3 0.03 0.76 0.76 49 1011.1
20260505201523 18 203 3.2 11.3 0.03 0.76 0.76 54 1011.3
20260505200025 17 77 4.8 17.7 0.03 0.76 0.76 58 1011.6
20260505194526 19 306 8.0 30.6 0.00 0.74 0.74 49 1011.2
20260505193014 20 248 3.2 14.5 0.00 0.74 0.74 48 1011.1
20260505191520 18 345 3.2 16.1 0.00 0.74 0.74 52 1011.0
20260505190023 18 359 4.8 16.1 0.00 0.74 0.74 48 1011.4
20260505184514 20 255 4.8 12.9 0.00 0.74 0.74 49 1011.3
20260505183013 20 254 6.4 14.5 0.00 0.74 0.74 49 1011.3
20260505181516 20 34 3.2 9.7 0.00 0.74 0.74 50 1011.4
20260505180019 18 320 3.2 8.0 0.00 0.74 0.74 59 1011.9
20260505174524 18 303 3.2 14.5 0.03 0.74 0.74 65 1012.1
20260505173007 18 314 3.2 11.3 0.03 0.74 0.74 63 1012.0
20260505171513 17 345 3.2 8.0 0.03 0.74 0.74 77 1012.3
20260505170023 16 201 1.6 6.4 0.03 0.74 0.74 78 1012.6
20260505164520 16 305 1.6 4.8 0.00 0.71 0.71 77 1012.4
20260505163028 15 211 0.0 8.0 0.00 0.71 0.71 82 1012.4
20260505161508 15 281 3.2 8.0 0.00 0.71 0.71 83 1012.3
20260505153024 13 354 1.6 3.2 0.03 0.71 0.71 86 1012.3
20260505151533 13 23 0.0 3.2 0.03 0.71 0.71 84 1012.3
20260505124513 12 50 0.0 0.0 0.00 0.69 0.69 90 1011.8
20260505123017 12 50 0.0 0.0 0.00 0.69 0.69 89 1011.7
20260505121518 12 20 0.0 3.2 0.03 0.69 0.69 88 1011.7
20260505120028 12 100 0.0 1.6 0.03 0.69 0.69 89 1011.8
20260505114508 12 142 0.0 1.6 0.05 0.69 0.69 89 1012.2